Weather History for KGYI - December, 2013

Change the Weather History Date:

Saturday, December 28, 2013

  Actual Average (KDFW) Record (KDFW)
Temperature  
Mean Temperature 48 °F 46 °F  
Max Temperature 59 °F 56 °F 81 °F (1928)
Min Temperature 37 °F 36 °F 11 °F (1924)
Degree Days  
Heating Degree Days 17 20  
Month to date heating degree days 499  
Since 1 July heating degree days 853  
Cooling Degree Days 0 0  
Month to date cooling degree days 0  
Year to date cooling degree days 2752  
Moisture  
Dew Point 38 °F    
Average Humidity 68    
Maximum Humidity 91    
Minimum Humidity 43    
Precipitation  
Precipitation 0.00 in 0.08 in 0.91 in (1937)
Month to date precipitation 2.34  
Year to date precipitation 35.93  
Snow  
Snow 0.00 in 0.00 in 1.50 in (1915)
Month to date snowfall 0.3  
Since 1 July snowfall 0.3  
Snow Depth -    
Sea Level Pressure  
Sea Level Pressure 30.13 in    
Wind  
Wind Speed 7 mph (South)    
Max Wind Speed 15 mph    
Max Gust Speed 16 mph    
Visibility 10 miles    
Events      
T = Trace of Precipitation, MM = Missing Value Source: NWS Daily Summary

Daily Weather History Graph

Daily Weather History Graph

Search for Another Location

Airport or City:

Trip Planner

Search our weather history database for the weather conditions in past years. The results will help you decide how hot, cold, wet, or windy it might be!

Date:

Astronomy

Dec. 28, 2013 Rise Set
Actual Time 7:30 AM CST 5:26 PM CST
Civil Twilight 7:02 AM CST 5:54 PM CST
Nautical Twilight 6:31 AM CST 6:25 PM CST
Astronomical Twilight 6:01 AM CST 6:55 PM CST
Moon 3:14 AM CST (12/28) 2:12 PM CST (12/28)
Length of Visible Light 10h 51m
Length of Day
9h 56m
Waning Crescent, 19% of the Moon is Illuminated
Dec 28
Waning Crescent
Jan 1
New
Jan 7
First Quarter
Jan 15
Full
Jan 23
Last Quarter

Hourly Weather History & Observations

Time (CST) Temp. Windchill Dew Point Humidity Pressure Visibility Wind Dir Wind Speed Gust Speed Precip Events Conditions
12:15 AM 42.6 °F 39.0 °F 33.8 °F 71% 30.33 in 10.0 mi SSE 5.8 mph - N/A   Clear
12:35 AM 42.3 °F 37.9 °F 34.3 °F 74% 30.32 in 10.0 mi SSE 6.9 mph - N/A   Clear
12:55 AM 41.2 °F 37.3 °F 34.2 °F 76% 30.32 in 10.0 mi SSE 5.8 mph - N/A   Clear
1:15 AM 42.8 °F 39.3 °F 34.9 °F 74% 30.30 in 10.0 mi SSE 5.8 mph - N/A   Clear
1:35 AM 42.1 °F 37.7 °F 35.2 °F 77% 30.30 in 10.0 mi SSE 6.9 mph - N/A   Clear
1:55 AM 43.3 °F 39.9 °F 35.6 °F 74% 30.30 in 10.0 mi SSE 5.8 mph - N/A   Scattered Clouds
2:15 AM 43.9 °F 39.9 °F 36.0 °F 74% 30.29 in 10.0 mi SSE 6.9 mph - N/A   Clear
2:35 AM 41.7 °F 38.8 °F 35.6 °F 79% 30.28 in 10.0 mi SSE 4.6 mph - N/A   Clear
2:55 AM 41.4 °F 38.4 °F 35.4 °F 79% 30.28 in 10.0 mi SSE 4.6 mph - N/A   Clear
3:15 AM 38.7 °F 36.3 °F 34.7 °F 86% 30.27 in 10.0 mi South 3.5 mph - N/A   Clear
3:35 AM 39.6 °F 37.4 °F 34.9 °F 83% 30.27 in 10.0 mi South 3.5 mph - N/A   Clear
3:55 AM 38.8 °F 35.4 °F 34.7 °F 85% 30.27 in 10.0 mi South 4.6 mph - N/A   Clear
4:15 AM 39.2 °F - 34.7 °F 84% 30.26 in 10.0 mi Calm Calm - N/A   Clear
4:35 AM 40.1 °F 38.0 °F 35.2 °F 83% 30.25 in 10.0 mi SSE 3.5 mph - N/A   Clear
4:55 AM 40.1 °F 36.9 °F 34.9 °F 82% 30.25 in 10.0 mi SSE 4.6 mph - N/A   Clear
5:15 AM 40.1 °F 36.1 °F 36.3 °F 86% 30.24 in 10.0 mi SSE 5.8 mph - N/A   Clear
5:35 AM 37.4 °F 33.8 °F 34.2 °F 88% 30.24 in 10.0 mi South 4.6 mph - N/A   Clear
5:55 AM 38.3 °F 35.9 °F 34.9 °F 87% 30.23 in 10.0 mi South 3.5 mph - N/A   Clear
6:15 AM 38.7 °F 35.2 °F 34.7 °F 86% 30.24 in 10.0 mi South 4.6 mph - N/A   Clear
6:35 AM 38.5 °F 34.1 °F 35.1 °F 87% 30.24 in 10.0 mi South 5.8 mph - N/A   Clear
6:55 AM 37.0 °F 31.6 °F 34.5 °F 91% 30.24 in 10.0 mi South 6.9 mph - N/A   Clear
7:15 AM 37.9 °F 33.5 °F 35.6 °F 91% 30.24 in 7.0 mi South 5.8 mph - N/A   Clear
7:35 AM 37.9 °F 33.5 °F 35.4 °F 91% 30.24 in 7.0 mi South 5.8 mph - N/A   Clear
7:55 AM 38.3 °F 35.9 °F 36.0 °F 91% 30.24 in 7.0 mi SE 3.5 mph - N/A   Clear
8:15 AM 39.7 °F 37.6 °F 36.9 °F 89% 30.24 in 7.0 mi South 3.5 mph - N/A   Clear
8:35 AM 40.3 °F - 37.4 °F 89% 30.24 in 7.0 mi Calm Calm - N/A   Clear
8:55 AM 44.8 °F 42.4 °F 40.1 °F 84% 30.23 in 7.0 mi SSW 4.6 mph - N/A   Clear
9:15 AM 47.5 °F - 40.8 °F 78% 30.23 in 10.0 mi SSW 6.9 mph - N/A   Clear
9:35 AM 49.1 °F - 41.4 °F 75% 30.22 in 10.0 mi SSW 9.2 mph - N/A   Clear
9:55 AM 50.2 °F - 41.2 °F 71% 30.23 in 10.0 mi SSW 10.4 mph - N/A   Clear
10:15 AM 51.3 °F - 41.2 °F 68% 30.22 in 10.0 mi SSW 11.5 mph - N/A   Clear
10:35 AM 52.2 °F - 41.9 °F 68% 30.22 in 10.0 mi South 10.4 mph 16.1 mph N/A   Clear
10:55 AM 53.1 °F - 41.7 °F 65% 30.21 in 10.0 mi South 15.0 mph - N/A   Clear
11:15 AM 53.4 °F - 41.4 °F 64% 30.19 in 10.0 mi South 12.7 mph - N/A   Clear
11:35 AM 54.9 °F - 41.5 °F 61% 30.18 in 10.0 mi South 11.5 mph - N/A   Clear
11:55 AM 55.6 °F - 41.0 °F 58% 30.16 in 10.0 mi South 9.2 mph - N/A   Clear
12:15 PM 56.3 °F - 39.7 °F 54% 30.14 in 10.0 mi SSW 11.5 mph - N/A   Clear
12:35 PM 57.4 °F - 39.0 °F 50% 30.12 in 10.0 mi South 12.7 mph - N/A   Clear
12:55 PM 57.7 °F - 38.7 °F 49% 30.10 in 10.0 mi South 11.5 mph - N/A   Clear
1:15 PM 57.9 °F - 37.2 °F 46% 30.08 in 10.0 mi South 13.8 mph - N/A   Clear
1:35 PM 59.0 °F - 37.0 °F 44% 30.08 in 10.0 mi SSW 12.7 mph - N/A   Clear
1:55 PM 57.4 °F - 38.3 °F 49% 30.07 in 10.0 mi SSW 12.7 mph - N/A   Clear
2:15 PM 58.3 °F - 38.3 °F 47% 30.05 in 10.0 mi South 10.4 mph - N/A   Clear
2:35 PM 56.8 °F - 37.8 °F 49% 30.05 in 10.0 mi SSW 11.5 mph - N/A   Clear
2:55 PM 57.7 °F - 39.0 °F 50% 30.04 in 10.0 mi South 12.7 mph - N/A   Scattered Clouds
3:15 PM 58.1 °F - 37.2 °F 46% 30.03 in 10.0 mi SSW 10.4 mph - N/A   Scattered Clouds
3:35 PM 59.5 °F - 36.9 °F 43% 30.02 in 10.0 mi South 10.4 mph - N/A   Clear
3:55 PM 58.1 °F - 37.8 °F 47% 30.02 in 10.0 mi South 12.7 mph - N/A   Clear
4:15 PM 56.3 °F - 38.7 °F 52% 30.01 in 10.0 mi SSW 9.2 mph - N/A   Clear
4:35 PM 55.8 °F - 39.9 °F 55% 30.01 in 10.0 mi South 5.8 mph - N/A   Clear
4:55 PM 55.0 °F - 39.2 °F 55% 30.01 in 10.0 mi SSE 8.1 mph - N/A   Clear
5:15 PM 54.0 °F - 40.1 °F 59% 30.01 in 10.0 mi SE 5.8 mph - N/A   Scattered Clouds
5:35 PM 53.8 °F - 40.1 °F 60% 30.01 in 10.0 mi SSE 6.9 mph - N/A   Mostly Cloudy
5:55 PM 53.8 °F - 40.1 °F 60% 30.00 in 10.0 mi SSE 8.1 mph - N/A   Overcast
6:15 PM 54.0 °F - 39.4 °F 58% 30.00 in 10.0 mi SSE 9.2 mph - N/A   Overcast
6:35 PM 53.8 °F - 39.0 °F 57% 30.01 in 10.0 mi SSE 9.2 mph - N/A   Overcast
6:55 PM 53.6 °F - 38.7 °F 57% 30.00 in 10.0 mi SSE 10.4 mph - N/A   Overcast
7:15 PM 53.4 °F - 38.8 °F 58% 30.00 in 10.0 mi SSE 9.2 mph - N/A   Overcast
7:35 PM 53.1 °F - 38.5 °F 58% 30.00 in 10.0 mi SSE 9.2 mph - N/A   Overcast
7:55 PM 52.7 °F - 38.5 °F 58% 29.99 in 10.0 mi SSE 11.5 mph - N/A   Overcast
8:15 PM 52.7 °F - 38.5 °F 58% 29.98 in 10.0 mi SSE 10.4 mph - N/A   Overcast
8:35 PM 52.2 °F - 38.5 °F 60% 29.98 in 10.0 mi SSE 10.4 mph - N/A   Overcast
8:55 PM 51.8 °F - 38.7 °F 61% 29.98 in 10.0 mi SE 11.5 mph - N/A   Overcast
9:15 PM 50.5 °F - 38.3 °F 63% 29.97 in 10.0 mi SSE 9.2 mph - N/A   Mostly Cloudy
9:35 PM 49.1 °F - 37.9 °F 65% 29.98 in 10.0 mi South 8.1 mph - N/A   Clear
9:55 PM 49.3 °F - 37.9 °F 65% 29.98 in 10.0 mi SSE 8.1 mph - N/A   Clear
10:15 PM 47.7 °F - 37.8 °F 69% 29.98 in 10.0 mi SSE 6.9 mph - N/A   Clear
10:35 PM 47.8 °F - 37.6 °F 68% 29.98 in 10.0 mi SSE 6.9 mph - N/A   Clear
10:55 PM 46.8 °F - 37.4 °F 70% 29.98 in 10.0 mi SSE 6.9 mph - N/A   Clear
11:15 PM 46.2 °F 42.7 °F 37.4 °F 71% 29.98 in 10.0 mi SSE 6.9 mph - N/A   Clear
11:35 PM 46.0 °F 41.9 °F 37.4 °F 72% 29.97 in 10.0 mi SE 8.1 mph - N/A   Clear
11:55 PM 45.9 °F 41.2 °F 37.0 °F 71% 29.97 in 10.0 mi SSE 9.2 mph - N/A   Clear